Flag for Greenland Weather past 2 weeks in Nuuk, Greenland

Now
57 °F

Partly sunny.


Feels Like: 56 °F
Forecast: 41 / 53 °F
Wind: 7 mph from Northwest

Location: Godthaab / Nuuk

Current Time: Aug 4, 2015 at 3:54:09 PM

Latest Report: Aug 4, 2015 at 2:50 PM


Visibility: N/A

Pressure: 30.12 "Hg

Humidity: 59%

Dew point: 43 °F

Location of NuukLocation

Historic Weather in Nuuk — Graph

°F

Nuuk temperature yesterday

Maximum temperature yesterday: 68 °F (at 3:50 PM)
Minimum temperature yesterday: 46 °F (at 10:50 PM)
Average temperature yesterday: 55 °F

Past Weeks' High & Low Weather Summary

 TemperatureHumidityPressure
High68 °F (Aug 3, 3:50 PM)100% (Jul 20, 7:50 PM)30.18 "Hg (Jul 20, 7:50 PM)
Low36 °F (Jul 21, 6:50 AM)30% (Aug 2, 1:50 PM)29.89 "Hg (Jul 26, 9:50 PM)
Average46 °F80%30.07 "Hg
* Reported Jul 20 2:50 PM — Aug 4 2:50 PM, Nuuk, Weather by CustomWeather, © 2015

Note: Actual official high and low records may vary slightly from our data, if they occured in-between our weather recording intervals... More about our weather records

Advertising

Nuuk weather history for previous 24 hours

 ConditionsComfort  
Time TempWeatherWind HumidityBarometerVisibility
2:50 PM
Tue, Aug 4
57 °FPartly sunny.7 mph59%30.12 "HgN/A
1:50 PM59 °FPartly sunny.6 mph55%30.12 "HgN/A
12:50 PM59 °FPartly sunny.6 mph55%30.15 "HgN/A
11:50 AM55 °FPartly sunny.6 mph63%30.15 "HgN/A
10:50 AM54 °FBroken clouds.7 mph67%30.15 "HgN/A
9:50 AM52 °FPartly sunny.5 mph77%30.15 "HgN/A
8:50 AM50 °FPartly sunny.5 mph76%30.15 "HgN/A
7:50 AM46 °FBroken clouds.6 mph87%30.15 "HgN/A
6:50 AM45 °FScattered clouds.8 mph93%30.15 "HgN/A
5:50 AM45 °FScattered clouds.10 mph93%30.15 "HgN/A
4:50 AM45 °FPassing clouds.8 mph87%30.12 "HgN/A
3:50 AM43 °FQuite cool.9 mph93%30.12 "HgN/A
2:50 AM43 °FPassing clouds.8 mph93%30.12 "HgN/A
1:50 AM45 °FPassing clouds.12 mph87%30.12 "HgN/A
1:20 AM45 °FPassing clouds.9 mph87%30.12 "HgN/A
12:50 AM45 °FPassing clouds.10 mph87%30.12 "HgN/A
11:50 PM
Mon, Aug 3
46 °FPassing clouds.12 mph82%30.15 "HgN/A
10:50 PM46 °FPassing clouds.2 mph82%30.15 "HgN/A
9:50 PM52 °FPassing clouds.5 mph62%30.15 "HgN/A
8:50 PM54 °FPassing clouds.9 mph63%30.15 "HgN/A
7:50 PM57 °FPassing clouds.8 mph51%30.15 "HgN/A
6:50 PM61 °FPassing clouds.6 mph45%30.15 "HgN/A
5:50 PM63 °FPassing clouds.8 mph37%30.15 "HgN/A
4:50 PM64 °FPassing clouds.9 mph32%30.15 "HgN/A
3:50 PM68 °FPassing clouds.6 mph35%30.15 "HgN/A
Weather by CustomWeather, © 2015

See weather overviewHow to use our weather pages